Wind_Speed
21 18 16 17 18 20 23 25 26 26 26 28 28 29 29 29 30 30 31 31 32 32 33 33 33 33 32 32 31 31 30 31 31 31 32 32 33 33 33 33 34 37 40 44 46 48 49 51 53 54 53 52 51 48 44 39 35 32 31 29 27 27 26 26 26 27 28 29 29 30 31 34 36 36 33 32 30 30 29 27 26 25 24 22 20 17
21 20 18 18 19 20 22 25 27 27 28 28 29 29 29 29 29 30 31 31 32 32 32 33 33 33 32 32 32 32 31 31 31 31 32 32 32 33 33 33 34 36 39 43 45 47 49 51 53 55 55 54 53 49 44 39 35 33 31 29 28 28 27 26 26 26 28 28 29 30 32 35 36 36 34 33 32 31 30 28 27 25 24 22 20 17
22 22 23 22 21 21 22 24 26 28 29 29 30 30 29 29 29 29 30 30 31 31 31 31 31 31 32 32 32 32 32 31 31 31 31 31 31 31 31 32 33 35 38 42 45 46 47 50 53 55 55 55 54 50 44 39 36 33 32 30 29 29 28 26 26 26 28 28 29 31 33 36 37 37 35 34 33 32 31 29 27 25 24 22 20 18
23 25 26 24 23 23 23 23 24 26 28 29 29 30 30 28 28 29 29 29 29 29 30 30 29 29 30 30 30 30 30 30 30 30 30 30 30 30 30 30 31 33 37 41 44 46 47 49 52 54 55 54 52 49 44 39 36 34 32 31 30 29 28 26 26 27 28 29 30 32 34 37 38 37 36 35 34 33 31 29 27 25 23 22 20 18
23 24 25 22 21 21 24 24 24 25 26 27 28 28 28 28 28 28 29 29 28 28 28 28 28 27 27 27 28 28 29 28 28 29 29 29 29 29 28 28 30 32 36 40 43 46 47 49 52 53 53 52 50 47 43 39 36 34 33 32 31 30 28 27 27 29 29 30 31 33 36 37 38 37 36 35 34 33 31 29 27 25 23 22 20 19
21 21 22 21 20 20 22 23 24 24 24 25 26 27 27 27 28 28 28 28 28 27 26 26 26 26 26 26 27 28 28 28 28 28 28 29 28 28 28 28 29 31 35 39 43 45 48 50 52 53 52 50 48 45 42 39 36 34 33 32 31 30 28 27 28 30 31 32 33 35 37 38 38 37 36 35 34 32 30 29 27 25 23 22 20 19
21 19 21 21 22 22 22 23 24 25 23 23 24 25 26 27 27 28 28 28 28 28 27 27 26 26 27 28 29 29 29 29 29 29 29 29 28 28 27 27 28 30 34 38 42 45 48 50 52 53 52 50 47 44 41 38 35 34 34 33 31 30 28 28 29 31 33 34 35 36 37 38 38 37 36 35 33 32 30 28 27 25 24 22 21 19
20 19 20 21 22 23 24 25 26 26 25 23 22 22 24 25 27 28 28 29 29 28 28 28 28 28 28 28 29 29 29 29 29 29 29 29 28 28 27 27 27 30 33 37 41 44 47 50 51 52 51 49 47 44 40 37 35 34 34 33 31 30 29 30 31 33 35 36 37 38 38 38 37 36 35 34 33 32 30 28 27 25 24 22 21 19
18 18 19 21 21 21 21 23 25 26 26 24 22 20 20 21 22 24 25 27 28 28 27 27 27 28 28 28 28 28 28 28 28 27 27 27 26 26 26 26 27 29 32 36 40 44 47 49 50 50 49 48 46 43 39 36 35 34 34 33 31 30 30 31 33 35 37 39 39 39 39 38 37 36 35 34 33 32 30 28 26 25 23 22 20 18
18 17 17 19 20 20 18 17 19 22 25 25 24 21 19 18 17 18 19 22 25 27 26 26 25 25 26 26 25 25 25 26 27 27 27 26 25 26 26 25 26 27 30 35 39 43 46 48 49 48 47 46 44 40 37 35 34 34 34 33 32 31 31 33 34 36 38 40 41 41 40 39 38 37 36 35 33 31 29 27 26 24 23 22 20 18
14 14 14 15 17 18 17 15 15 18 22 23 23 22 21 20 18 16 15 17 20 22 22 23 23 23 22 22 22 21 21 22 23 25 25 25 25 25 25 24 24 26 29 34 39 43 46 47 47 46 45 43 40 37 35 34 34 34 33 33 32 32 32 33 35 36 37 39 40 40 40 39 38 37 36 34 32 30 28 27 25 24 23 21 19 17
11 11 11 12 13 15 16 15 15 17 19 18 17 17 18 21 21 18 16 16 17 17 17 19 21 23 22 21 20 19 19 19 20 22 23 24 24 24 23 23 23 25 28 32 38 42 45 45 45 44 42 40 37 35 34 33 34 34 33 33 33 33 33 34 35 36 37 37 37 37 37 36 35 34 33 31 29 28 27 26 25 24 22 20 18 16
12 11 11 11 12 13 15 14 14 15 16 15 14 14 15 18 20 20 19 18 17 16 15 16 18 21 24 24 22 20 18 18 20 21 22 23 23 23 23 23 24 25 28 31 36 40 42 43 43 42 40 37 35 33 33 33 34 34 34 34 34 34 34 35 36 37 37 36 35 34 33 32 31 30 28 28 27 27 26 26 24 23 21 19 16 15
11 11 11 11 11 13 14 14 14 13 15 16 17 17 17 17 17 18 18 18 18 18 16 15 16 19 22 24 23 21 19 18 19 20 20 21 22 23 23 23 25 26 28 32 36 38 40 41 41 40 38 36 34 33 33 34 35 36 36 36 35 35 35 35 35 36 36 35 34 32 31 29 28 27 26 26 26 27 26 25 23 21 19 17 15 15
11 11 9 9 10 12 14 15 15 16 17 18 18 18 17 16 15 16 17 16 17 17 16 15 16 17 20 23 23 21 19 17 17 18 18 20 21 21 22 23 25 27 29 33 36 37 39 40 40 39 38 36 35 34 35 35 37 38 38 38 38 37 36 35 35 34 34 33 32 31 30 29 28 27 26 27 27 27 26 24 22 19 17 16 15 15
12 11 9 9 10 13 15 16 16 17 17 17 17 17 16 15 15 16 16 15 14 13 12 11 11 12 15 19 21 20 18 17 17 17 17 18 19 20 21 23 25 28 31 34 36 37 39 40 41 40 39 37 36 36 36 37 38 38 39 39 39 39 38 37 36 35 34 33 32 31 30 30 29 28 28 28 28 27 25 23 20 18 16 15 15 16
13 13 12 11 12 14 16 16 17 17 17 16 17 17 17 16 16 16 15 14 12 11 11 10 6 4 6 11 15 18 18 18 18 17 17 17 18 19 22 25 27 30 31 34 36 38 39 40 40 41 40 39 38 38 37 38 38 38 38 38 38 38 38 38 37 36 35 34 34 33 32 31 31 30 30 29 28 26 24 21 19 17 15 15 15 16
13 13 13 13 13 14 15 16 17 18 17 17 17 17 18 18 16 15 15 14 12 11 11 11 8 5 3 5 9 14 19 20 19 16 16 17 19 21 23 26 29 31 32 34 36 38 39 40 41 41 41 41 40 39 39 39 39 39 37 37 36 35 35 35 35 34 34 34 34 33 33 32 31 31 30 29 27 25 23 21 19 17 16 15 16 17
14 14 14 14 15 15 15 16 16 17 18 17 17 16 16 17 16 16 16 15 15 14 14 12 12 11 10 8 9 13 20 22 20 17 15 16 19 22 25 26 28 31 32 33 35 37 39 40 40 41 41 41 41 40 40 40 40 39 38 37 35 34 33 32 31 31 31 31 32 32 32 31 31 30 29 28 26 24 22 21 19 17 16 16 16 17
14 15 16 16 16 15 15 16 17 18 18 18 17 16 16 16 16 16 17 17 17 17 16 14 14 14 13 10 9 13 20 24 21 17 15 16 19 22 25 25 27 29 30 32 34 37 38 39 40 40 41 41 40 40 40 40 40 39 38 37 36 34 33 31 30 30 30 30 30 31 31 31 31 30 29 27 26 24 23 21 20 18 17 17 17 17
13 14 16 17 16 15 15 16 19 20 20 19 18 17 16 16 16 16 17 17 17 17 17 15 15 15 14 12 11 14 20 25 23 17 15 15 18 22 25 25 26 28 28 30 33 35 37 38 39 40 41 41 40 39 39 39 38 38 37 37 36 34 33 32 31 31 30 31 31 31 31 31 31 30 29 28 26 25 23 22 21 19 18 18 18 18
16 15 16 16 16 16 16 17 18 20 21 20 20 19 18 17 16 17 18 18 17 17 17 17 17 16 15 13 14 16 20 26 25 19 15 12 14 19 24 26 26 27 28 30 32 34 36 37 38 39 40 40 39 38 38 37 37 37 36 35 35 34 33 32 32 32 32 32 32 33 32 32 32 31 30 28 27 25 24 23 21 20 19 19 18 18
19 18 17 16 17 18 18 18 18 19 20 21 22 22 21 19 19 19 19 19 19 18 18 18 18 18 16 15 15 17 21 27 27 22 17 11 11 17 23 25 26 26 27 29 32 33 35 36 37 38 39 39 38 37 37 36 36 35 35 34 34 33 32 32 32 32 32 33 33 33 33 33 32 31 30 28 27 25 24 23 21 20 19 19 18 18
20 20 19 19 19 19 20 20 20 20 21 22 23 24 24 23 22 21 20 20 20 20 19 19 17 16 15 15 16 18 23 28 30 25 19 14 14 19 23 25 24 23 24 28 31 33 34 35 36 37 37 37 37 37 36 36 35 35 34 33 33 32 32 32 32 32 32 33 33 33 33 33 32 31 29 28 26 25 23 22 21 19 19 18 18 18
23 22 21 21 21 21 21 22 22 23 23 24 24 24 24 24 23 22 21 20 19 19 18 16 13 11 12 13 15 19 24 29 31 27 20 15 14 18 25 25 23 21 23 27 30 32 33 34 34 35 35 35 36 36 36 36 35 34 34 33 32 31 31 31 31 32 32 33 33 33 33 32 31 29 28 27 25 24 22 21 20 19 18 18 18 18
27 27 26 26 25 24 24 23 23 24 25 26 25 25 24 24 22 20 19 18 18 17 15 12 10 10 11 12 14 18 24 29 31 28 23 16 14 17 23 24 23 21 22 26 29 30 30 32 33 33 34 34 35 35 36 36 35 34 33 32 32 31 31 31 31 31 32 32 32 32 31 30 29 28 27 25 24 23 21 20 19 18 18 18 17 17
27 28 29 29 29 28 26 25 25 25 26 27 27 26 25 24 22 19 16 17 18 17 15 10 7 7 10 10 11 16 23 28 30 29 25 20 16 16 21 23 23 21 21 23 25 27 28 29 31 32 33 34 34 35 35 35 35 34 33 33 32 31 31 31 31 31 31 31 31 31 30 29 28 27 26 24 23 22 21 20 19 19 18 18 17 17
25 26 28 28 29 29 28 27 26 26 26 27 27 26 25 24 22 19 17 18 19 18 16 11 7 5 6 8 11 15 22 27 29 29 27 23 18 16 21 24 24 22 22 21 22 23 24 26 29 31 32 33 34 34 34 34 34 34 33 32 32 32 32 32 32 32 31 31 31 30 29 28 27 26 25 24 23 22 22 21 20 19 18 18 18 17
23 24 26 27 28 29 29 28 28 27 27 28 28 28 27 26 24 22 21 22 21 19 17 15 12 9 8 9 11 13 18 24 29 31 29 23 17 17 23 25 24 24 23 20 17 17 18 21 25 28 30 31 32 33 33 33 33 33 32 32 32 32 32 32 32 32 32 31 30 30 29 28 27 26 25 24 24 23 23 22 21 20 19 19 18 18
21 22 23 24 26 26 27 28 28 28 28 29 29 29 30 29 28 27 26 24 23 21 18 17 15 13 10 9 7 7 12 21 29 33 31 23 17 17 24 25 25 25 25 19 11 7 9 15 21 25 27 29 30 31 32 33 33 33 32 32 32 32 32 32 32 32 32 31 30 30 29 28 27 26 26 25 25 24 24 23 22 21 20 20 19 18
22 22 22 22 22 23 24 26 27 28 28 29 29 30 31 32 31 29 27 27 26 24 21 18 17 15 13 8 4 3 6 17 29 35 34 26 19 20 25 25 25 27 29 22 10 2 5 10 16 22 25 26 28 30 32 33 33 34 33 33 32 32 32 32 32 32 31 31 30 30 29 28 27 27 26 26 26 26 25 24 23 22 21 21 20 19
23 23 23 22 21 21 21 23 24 25 26 28 29 31 33 34 33 31 29 29 29 27 24 21 19 18 17 13 10 8 8 16 28 36 37 28 21 22 28 26 25 28 30 27 19 11 7 6 12 19 22 23 25 28 30 32 33 34 34 34 33 32 32 32 32 31 31 30 30 29 29 28 28 27 27 27 27 27 26 24 23 22 22 22 22 21
23 23 23 22 21 21 22 22 22 23 24 26 28 30 33 35 35 34 33 32 32 30 27 24 21 19 19 19 17 15 14 18 27 37 39 30 22 21 26 27 26 26 28 26 21 17 12 12 14 18 19 21 23 26 28 30 32 34 35 35 34 33 32 32 32 31 29 29 29 28 28 28 27 27 28 28 27 27 26 24 24 23 23 23 24 24
22 23 23 22 22 22 22 22 22 23 24 25 27 29 31 34 36 36 35 34 34 33 31 28 25 22 20 19 18 17 16 18 27 37 41 34 26 23 26 27 26 26 25 22 17 13 13 16 19 18 17 19 21 24 27 28 30 32 34 35 34 33 32 32 31 30 28 27 27 27 27 27 27 27 27 27 27 26 25 24 23 23 23 24 26 27
22 22 22 22 22 22 21 21 22 23 24 25 27 28 30 32 35 36 35 35 34 34 34 33 30 28 25 22 20 18 17 19 27 37 42 38 31 26 27 27 27 27 25 22 17 12 11 16 20 21 18 17 18 21 25 27 29 31 33 33 33 33 33 32 32 30 28 27 27 27 27 27 27 27 27 27 27 26 25 24 23 23 24 25 27 29
21 22 22 22 22 21 20 21 22 23 24 25 26 28 29 31 33 34 34 34 34 34 34 34 33 32 30 27 25 22 20 23 28 36 42 41 36 30 26 27 29 31 27 24 20 16 14 16 19 21 20 18 16 17 22 26 28 29 30 31 31 31 32 32 32 31 29 27 26 27 27 28 27 27 27 27 26 25 24 24 24 24 25 27 29 30
21 22 22 22 21 21 20 20 21 22 23 25 26 27 29 30 32 33 34 34 33 33 34 34 33 33 32 31 29 26 24 27 31 36 41 42 39 33 27 27 31 33 30 26 23 20 19 17 17 18 19 18 18 18 20 25 27 28 28 29 29 29 30 30 30 30 29 28 27 27 28 28 27 26 26 26 25 25 24 23 23 24 26 28 29 30
22 22 22 22 22 21 20 19 20 21 23 24 25 27 28 30 31 33 34 35 34 34 34 34 33 32 31 31 29 27 26 29 32 36 42 43 41 36 30 28 31 34 33 30 27 24 22 18 14 12 13 17 19 21 23 26 27 27 27 28 29 29 29 29 29 29 29 28 27 27 28 28 26 25 25 25 25 25 24 24 24 24 26 28 29 30
22 22 22 22 22 21 20 19 20 21 22 22 23 25 28 29 30 31 33 34 35 35 34 34 33 32 31 30 30 28 27 29 32 37 41 44 43 38 33 30 31 33 33 31 28 27 26 23 19 16 14 15 16 19 24 27 27 27 28 28 28 28 29 29 30 29 29 27 27 27 27 27 26 25 25 26 26 26 26 25 24 25 26 27 29 29
21 22 22 23 23 23 21 20 20 21 22 22 23 25 27 28 29 30 31 33 34 34 34 33 33 31 31 30 30 29 29 30 32 36 41 45 45 41 36 34 33 34 33 30 28 27 27 26 25 25 23 20 18 19 21 24 27 28 27 25 23 24 28 29 30 29 29 28 27 27 26 27 26 25 25 26 26 26 27 26 26 26 27 28 28 29
21 22 23 23 23 23 22 21 21 21 22 22 23 25 26 28 28 28 29 29 30 31 31 31 30 29 29 29 29 29 29 29 32 35 40 45 47 44 38 37 36 36 34 31 29 27 27 26 26 25 24 23 22 22 22 24 27 29 28 25 24 25 29 30 30 29 29 28 27 27 27 27 27 26 25 25 26 26 26 26 26 26 28 28 29 30
23 23 24 23 23 23 23 21 21 21 22 22 23 24 26 27 28 28 27 27 27 28 28 28 28 26 25 25 27 27 28 29 31 35 39 44 46 45 41 38 38 37 36 33 30 28 27 27 26 25 24 24 23 22 21 23 26 28 28 26 25 25 26 28 29 29 28 27 27 27 26 26 26 26 25 25 25 25 25 25 26 27 27 28 29 31
24 24 24 23 23 23 23 22 22 22 22 21 22 24 26 27 27 27 27 26 26 27 28 28 28 26 23 22 23 25 26 28 31 35 38 43 45 45 41 39 39 39 38 33 30 27 27 27 26 26 27 27 26 24 23 23 25 27 27 26 26 23 18 22 27 29 28 26 26 26 26 26 26 25 25 24 24 23 24 24 25 27 27 27 28 29
24 25 24 24 24 24 23 22 21 21 22 23 24 25 26 27 28 28 27 26 26 26 27 27 26 24 21 20 20 22 24 26 30 34 38 42 44 44 42 40 39 40 40 36 31 28 26 25 24 25 27 28 27 26 25 25 25 26 27 28 27 25 22 24 29 31 28 27 26 27 27 26 26 25 25 24 24 23 24 24 25 27 28 28 27 28
26 26 25 24 23 22 22 22 22 21 21 23 25 25 26 27 28 28 28 26 25 25 25 26 23 19 17 17 18 19 21 23 28 33 38 41 43 44 42 40 39 39 40 38 35 31 27 24 24 25 26 27 27 27 26 26 26 27 27 28 28 27 25 27 31 32 30 28 27 27 27 27 27 26 25 24 23 23 23 24 25 27 28 26 26 26
24 24 24 23 23 23 24 24 23 22 22 23 24 25 26 27 28 28 29 27 26 25 25 25 22 19 17 16 16 17 18 19 23 28 34 38 40 41 40 39 39 39 38 37 36 33 31 29 28 27 26 25 25 25 27 28 28 27 27 28 27 24 23 25 29 31 31 29 28 28 29 29 28 26 24 24 24 24 24 24 25 26 28 27 26 26
22 21 20 20 20 21 23 23 22 21 21 22 23 24 25 26 27 28 28 27 26 24 23 23 22 21 19 18 18 18 18 18 19 23 28 32 35 36 36 36 36 37 36 35 33 31 30 30 30 30 28 25 22 21 24 27 28 28 28 28 27 25 23 25 29 32 32 29 28 29 30 29 27 26 25 24 24 25 25 25 26 27 28 27 27 26
23 22 20 19 18 19 20 20 20 20 21 21 23 23 24 26 27 27 26 26 25 23 22 21 21 20 19 19 20 21 21 21 21 22 25 28 31 32 32 32 32 33 33 31 29 27 26 27 28 30 30 27 24 21 22 25 27 28 29 29 28 26 24 26 29 32 32 30 30 31 32 31 29 26 25 24 23 23 24 26 27 28 29 29 27 26
23 23 22 21 20 20 18 18 18 19 20 22 22 23 23 26 28 27 26 25 24 23 21 21 21 20 18 17 19 21 21 21 21 22 24 27 29 30 30 30 30 30 29 27 25 24 23 24 25 27 28 27 25 24 24 25 26 27 28 29 28 27 25 26 29 31 32 31 32 33 34 32 30 29 27 24 23 22 23 26 28 30 31 30 28 26
24 24 24 24 23 21 19 18 18 19 21 22 22 21 21 23 26 27 26 25 24 23 22 22 21 20 19 18 19 20 20 20 19 21 24 26 28 29 29 30 30 29 26 24 22 21 20 20 21 24 26 25 24 25 25 25 26 26 26 26 27 27 26 26 28 31 32 32 33 34 34 32 30 28 26 24 23 22 22 24 28 31 33 33 32 29
22 23 24 24 24 22 21 19 19 20 21 22 21 20 19 21 22 23 24 23 22 22 22 22 21 21 20 19 19 21 22 21 21 21 23 25 27 29 29 29 29 28 24 20 17 15 14 12 12 15 19 22 24 25 27 27 27 25 24 24 25 26 26 26 28 30 31 32 33 34 34 32 29 27 26 24 23 21 21 22 26 31 35 35 35 32
Wind_Direction
245 244 240 236 234 235 239 244 245 246 247 251 253 255 256 257 257 258 259 258 257 257 256 257 259 261 264 266 266 264 262 260 258 257 257 258 260 262 262 258 249 241 235 234 233 232 230 226 222 219 218 216 215 214 213 210 206 205 205 202 200 198 198 198 201 205 209 208 202 198 198 198 194 189 187 187 187 186 187 189 192 195 198 197 195 193
241 241 240 238 234 232 236 241 243 243 245 248 251 254 256 257 258 259 259 259 258 257 257 257 259 261 263 265 266 266 264 261 259 258 257 257 258 260 262 260 254 245 238 235 234 233 230 225 221 218 217 215 213 212 209 206 203 203 202 200 198 197 197 196 198 203 207 206 201 197 197 197 193 189 187 186 186 186 187 189 192 196 198 197 197 197
243 243 245 244 238 233 233 238 241 242 244 247 250 253 255 256 257 258 259 260 260 260 259 259 260 262 263 264 265 265 264 263 262 260 259 258 258 259 260 260 256 249 242 237 235 234 230 225 221 218 215 213 211 209 207 203 201 200 200 198 196 196 196 195 197 201 204 204 200 197 197 195 192 188 187 186 186 186 188 191 194 197 198 199 199 201
245 246 247 245 240 236 234 235 236 239 241 245 248 251 253 253 254 256 258 259 259 260 261 262 262 262 263 263 264 264 264 264 264 263 262 261 261 261 261 259 256 250 244 239 236 234 230 225 220 216 213 211 209 207 205 201 199 198 198 196 195 195 195 194 195 198 201 202 200 197 196 193 190 187 186 186 186 187 189 192 195 198 200 200 202 204
245 244 244 240 235 234 236 234 233 234 238 241 244 247 248 249 250 252 255 257 258 259 261 263 264 264 263 263 264 265 266 266 266 266 265 265 264 264 262 260 256 250 245 240 237 234 230 225 220 215 212 209 207 205 202 199 196 196 195 194 194 195 194 193 194 196 199 199 198 196 194 192 189 187 186 185 186 188 190 193 197 199 201 202 203 206
245 241 238 233 231 232 233 232 230 231 234 237 240 241 242 244 246 248 250 252 254 256 259 261 263 264 265 265 267 268 268 269 269 268 268 268 267 266 264 261 256 250 245 241 237 233 229 224 219 215 211 208 206 203 200 196 194 193 193 193 193 193 192 191 192 195 197 197 196 195 193 190 188 186 186 185 187 189 191 194 198 200 202 203 204 207
246 239 233 230 230 231 230 229 229 229 230 232 235 237 238 240 243 245 247 250 253 255 257 259 261 263 265 266 268 269 270 270 270 270 269 269 268 267 265 261 256 251 246 241 237 232 228 223 218 214 210 208 205 202 198 194 191 191 191 192 192 191 189 189 190 193 194 194 194 193 191 189 187 186 186 187 188 190 193 195 199 201 203 204 205 207
244 237 229 226 226 227 227 227 228 228 227 227 228 231 235 238 241 244 247 250 252 255 257 259 260 261 262 264 266 268 269 269 269 269 269 269 268 266 264 261 256 251 246 241 236 231 225 220 216 212 209 206 203 199 195 191 189 189 190 190 190 189 187 186 188 189 190 190 191 191 190 188 187 187 187 188 190 192 194 197 200 203 204 205 206 208
239 232 223 219 217 218 220 223 226 226 225 223 223 225 229 235 240 245 248 251 252 254 255 257 259 260 261 262 263 265 266 267 267 267 267 266 265 264 263 260 256 251 246 240 234 228 222 217 213 209 206 203 200 196 192 189 188 188 188 189 189 187 184 185 186 187 186 185 186 187 187 186 186 187 188 189 191 193 195 198 202 204 205 206 208 210
235 227 218 214 212 211 211 216 220 221 221 221 221 223 225 230 236 243 248 251 253 254 254 254 255 257 259 260 261 262 263 265 266 267 267 265 263 263 262 260 256 251 245 239 232 225 219 213 209 205 202 198 195 192 189 187 187 187 187 188 187 185 184 184 186 186 184 183 182 182 182 183 184 186 187 189 191 194 197 200 203 205 206 207 209 212
231 221 211 209 210 210 208 208 210 214 218 220 222 224 226 228 230 235 241 247 251 253 253 252 251 251 253 256 257 258 259 262 264 265 266 266 265 264 263 260 256 252 245 238 230 222 215 209 204 200 197 194 191 189 187 186 186 186 187 187 186 185 184 185 187 187 186 184 182 181 181 181 183 185 187 189 193 196 199 202 204 205 206 208 210 213
224 217 208 206 208 210 210 210 212 214 216 217 221 227 231 231 230 231 235 242 247 248 248 248 249 250 249 250 252 254 256 257 259 261 263 264 264 262 259 256 253 249 242 233 224 216 210 204 199 195 192 190 189 187 186 185 185 186 186 186 186 185 186 187 188 189 189 187 186 185 184 184 185 187 189 192 195 198 200 202 204 205 206 208 211 212
225 222 214 208 207 210 212 213 215 216 215 215 219 226 231 233 232 231 233 239 244 245 245 247 250 253 254 253 253 253 254 255 257 260 261 262 261 258 254 249 244 238 230 220 212 207 202 198 194 191 190 188 187 186 185 184 185 186 186 186 186 186 187 188 189 190 190 190 189 189 189 189 190 191 193 196 198 200 201 202 203 204 206 208 209 208
223 219 213 207 206 209 211 210 211 213 217 219 222 226 229 230 229 228 230 236 242 245 246 248 252 256 258 258 257 255 252 252 255 257 258 258 256 253 247 240 233 225 215 205 198 196 193 190 189 188 188 187 186 185 184 184 185 186 187 186 186 187 187 188 189 190 190 190 190 192 193 194 195 196 198 200 201 201 201 201 202 204 206 207 207 204
216 211 208 207 209 211 212 211 213 218 222 223 224 225 226 226 224 224 227 233 240 244 246 249 253 258 260 259 258 255 250 247 246 246 245 246 246 243 236 228 220 212 202 194 190 188 187 186 185 185 186 185 185 184 183 184 186 187 187 186 186 187 188 189 190 191 191 191 192 194 196 197 199 200 202 203 202 201 200 200 201 202 204 205 203 201
214 209 209 211 215 218 219 217 219 222 226 225 223 221 220 220 220 222 225 229 234 237 238 243 251 259 262 260 256 249 240 234 232 230 228 228 228 225 218 211 204 197 191 187 184 184 184 184 184 184 184 184 184 184 183 184 186 187 186 185 185 186 187 189 190 191 193 194 195 197 198 200 202 203 203 203 202 200 199 199 200 201 202 202 200 198
216 213 213 216 220 223 223 221 222 225 227 226 224 222 220 220 222 223 224 225 224 224 225 229 235 253 259 257 250 240 226 219 217 216 213 210 207 204 199 197 191 186 184 183 182 182 182 183 184 184 184 184 184 183 183 184 186 187 186 185 184 184 185 186 188 190 192 194 196 197 199 200 202 202 202 201 200 198 198 199 200 201 202 201 199 198
220 216 216 218 222 224 224 221 222 225 227 226 224 223 223 224 224 224 222 220 217 216 220 224 226 230 240 246 239 226 213 205 203 202 199 196 194 191 188 188 186 183 181 181 181 182 183 184 184 184 184 184 184 183 183 184 185 186 186 186 185 184 184 184 186 188 190 193 194 196 197 199 199 200 199 199 198 198 199 200 202 203 202 200 198 198
223 220 219 222 225 227 225 222 222 223 224 223 222 221 222 224 224 223 221 219 219 219 220 222 227 232 237 243 236 217 204 198 194 192 189 187 187 185 181 181 181 180 179 180 181 183 184 185 185 185 185 185 184 184 184 184 185 186 187 187 187 187 186 186 188 190 192 194 196 196 197 197 198 198 198 198 198 199 200 202 203 203 202 200 198 198
229 225 223 224 227 228 227 225 223 223 222 222 221 219 218 221 221 220 219 220 222 223 222 222 225 229 233 233 225 210 200 193 190 187 185 183 182 181 179 178 178 178 177 179 181 183 184 184 185 185 185 186 185 185 185 185 185 186 187 188 188 189 189 190 191 193 195 197 198 198 198 197 197 197 197 197 198 198 199 200 202 202 202 200 199 198
241 234 230 229 228 228 228 228 229 228 226 223 219 216 216 218 218 218 219 219 220 220 220 221 225 227 226 223 216 208 200 192 186 181 181 181 180 179 178 177 177 177 176 178 180 182 183 183 183 184 185 186 186 185 185 185 186 187 187 188 188 189 190 191 192 194 196 198 198 198 198 197 197 197 197 197 197 197 197 198 199 200 201 200 200 199
253 248 244 237 232 230 232 233 233 232 230 224 218 215 216 215 215 217 218 217 216 217 219 223 226 226 222 218 216 212 203 194 188 181 175 174 181 181 176 176 177 177 176 176 178 180 181 182 182 183 185 186 186 185 185 185 185 186 186 187 187 188 189 190 192 194 196 197 198 198 197 197 197 197 197 196 195 195 195 196 198 199 200 201 201 201
259 256 253 247 241 238 237 238 238 236 233 227 223 222 223 219 217 218 219 217 216 218 220 221 221 221 219 217 217 212 203 196 192 185 174 171 184 185 176 175 175 175 175 175 175 176 178 179 181 182 184 185 185 184 183 183 183 184 184 184 185 185 187 189 191 193 195 197 198 198 197 197 197 197 196 195 195 195 195 196 198 200 202 203 204 204
268 263 259 256 252 248 246 245 243 241 238 234 232 231 231 229 227 226 225 221 218 217 217 216 216 215 215 214 211 204 199 194 191 186 179 178 183 184 179 175 172 173 175 175 174 174 175 177 179 180 182 183 184 183 182 181 181 181 181 182 182 183 185 188 190 192 194 197 198 198 198 198 197 196 195 194 194 195 196 198 200 202 204 206 207 207
276 271 267 263 260 258 256 254 251 248 244 241 238 235 233 231 229 227 225 220 215 211 209 206 204 203 203 201 197 195 196 193 190 187 183 177 175 177 179 175 171 171 173 174 173 172 173 174 176 177 179 181 183 183 181 180 179 179 179 180 181 182 184 186 188 191 194 196 197 198 198 197 196 195 194 194 195 196 198 200 202 205 207 209 209 209
277 275 272 270 267 265 263 262 259 256 252 247 243 237 232 227 222 218 213 208 203 199 193 191 196 200 197 190 188 191 194 192 190 189 186 174 165 170 177 175 172 170 169 171 171 170 171 171 173 174 175 178 181 182 181 179 178 178 179 179 180 181 183 185 187 190 193 195 196 196 196 195 194 194 194 195 197 199 201 202 205 207 209 210 211 211
277 275 274 272 271 269 267 265 262 260 257 254 248 241 232 222 213 205 200 198 195 190 187 193 201 202 196 192 193 194 193 191 189 188 186 176 166 166 175 175 171 167 164 166 167 168 168 169 170 171 173 175 177 179 180 179 178 178 178 179 180 181 183 185 187 189 191 193 194 194 193 193 193 194 196 198 200 202 204 205 207 209 210 211 211 212
281 278 275 274 272 271 269 266 263 261 258 256 250 242 230 217 206 198 199 198 194 190 192 198 200 196 195 199 199 195 192 191 190 188 186 178 171 169 174 174 170 164 158 159 162 165 167 167 169 170 171 173 175 177 177 178 178 178 178 179 180 182 183 185 187 189 190 191 192 193 193 194 195 196 198 201 203 205 206 207 208 209 210 211 212 212
286 282 278 275 273 271 269 266 263 260 257 255 250 242 230 218 210 206 207 201 194 191 197 203 204 202 198 195 192 190 192 194 192 190 186 177 171 171 173 171 167 163 157 152 152 158 164 167 169 170 171 172 173 174 174 175 176 176 177 179 181 182 184 185 187 188 190 191 192 193 194 196 197 198 200 203 205 207 208 208 209 209 209 210 210 210
293 287 281 276 273 270 268 265 262 258 255 253 248 240 231 223 218 215 212 204 195 192 198 202 204 200 190 179 173 184 198 200 196 191 185 178 172 171 170 168 167 165 161 152 143 143 165 173 173 172 172 172 172 172 171 172 173 173 174 176 179 181 183 185 187 188 190 191 193 194 195 197 198 200 201 203 205 207 209 209 208 207 207 207 205 202
299 294 287 280 274 269 264 261 259 257 254 252 246 239 230 225 222 218 214 206 199 196 199 200 200 195 185 174 166 184 207 204 199 193 187 181 176 171 170 170 171 171 168 164 159 140 167 181 182 178 174 173 172 171 170 170 171 172 172 173 175 178 181 184 186 187 189 191 193 194 196 197 198 200 201 203 206 207 208 208 206 205 205 203 198 193
298 296 291 286 279 272 266 261 258 256 253 250 244 237 230 225 222 218 214 209 205 202 200 200 198 195 191 193 196 202 210 202 198 194 189 184 178 174 174 173 175 176 176 175 174 169 159 174 184 183 178 176 174 172 171 171 172 172 172 173 173 176 179 182 184 185 186 189 192 194 196 197 198 200 201 203 206 207 208 207 205 204 203 199 192 186
292 292 290 287 282 275 269 264 259 255 252 248 242 235 229 225 221 219 216 213 210 206 202 199 197 195 196 199 205 211 210 200 196 194 190 185 178 174 175 175 176 178 180 182 182 178 171 167 171 176 178 178 176 174 173 173 174 174 174 174 174 175 178 180 182 182 184 186 190 193 195 197 198 200 201 203 205 206 206 205 204 204 202 196 188 182
286 286 286 284 280 275 269 264 259 255 252 247 241 234 228 224 221 218 217 215 213 210 207 202 198 195 195 200 206 211 209 199 196 195 191 187 181 175 175 176 177 178 180 185 186 180 168 162 163 167 173 177 177 175 175 176 177 177 177 176 175 175 177 179 181 182 182 184 187 189 192 194 197 199 201 203 204 205 204 204 204 204 201 193 185 180
281 280 279 279 277 273 269 263 259 256 253 248 241 234 228 224 221 218 217 216 215 214 212 209 206 201 198 198 202 206 203 198 196 194 191 189 186 180 178 179 179 179 179 182 181 170 156 159 163 165 166 169 173 177 178 179 179 179 179 178 177 177 177 179 180 181 181 182 184 186 188 191 194 196 198 200 202 202 201 201 202 202 198 191 185 181
279 276 274 273 272 271 267 263 260 257 254 249 242 234 229 225 222 219 218 217 216 215 215 214 212 210 207 204 203 203 200 196 195 193 191 191 188 184 181 183 183 181 179 180 178 171 162 162 164 166 164 164 169 176 180 181 180 179 179 179 178 178 178 179 179 180 179 180 182 184 187 189 190 192 195 198 199 199 198 198 199 198 193 188 185 183
277 274 272 270 268 267 265 263 260 257 254 250 242 234 230 226 223 221 219 218 217 217 216 215 215 214 213 212 209 206 202 199 196 193 192 192 191 187 183 184 184 183 181 180 177 172 165 162 163 167 169 170 171 173 175 178 179 179 179 179 178 177 178 178 178 179 178 179 180 182 185 186 187 189 191 194 194 194 194 195 196 194 190 187 186 185
274 273 270 268 266 264 262 260 258 256 254 251 244 236 231 228 226 223 221 219 218 218 217 217 216 216 215 214 211 208 205 202 199 195 193 193 192 190 186 183 184 184 184 182 178 171 164 162 162 168 177 178 174 170 170 173 176 178 179 179 179 178 178 178 178 178 178 179 180 182 183 184 184 185 187 187 187 187 188 190 192 192 190 188 188 187
272 271 269 267 265 262 260 258 256 255 255 253 247 240 234 231 228 226 223 221 220 219 219 218 217 216 215 212 210 208 207 206 203 199 195 193 192 191 187 183 183 184 186 184 180 174 170 170 171 174 176 176 171 168 169 172 175 176 176 177 178 180 180 180 179 179 179 178 178 179 181 182 182 182 183 184 183 183 184 185 187 189 189 190 189 188
269 270 269 267 265 263 260 257 255 255 257 256 251 244 237 232 229 226 224 222 221 220 219 218 217 215 214 211 209 208 208 209 207 202 197 195 193 191 189 186 184 183 184 183 181 178 176 176 177 177 176 173 170 168 168 173 175 174 171 171 176 182 184 182 180 180 179 178 178 178 178 180 180 180 181 182 182 182 183 183 184 186 187 188 186 184
268 268 268 268 267 264 261 258 256 256 257 255 249 241 235 229 226 223 221 220 219 218 217 216 214 213 212 209 208 208 208 208 206 203 200 197 194 193 191 189 186 183 182 182 182 181 180 178 178 177 176 173 170 168 169 174 175 173 171 172 176 181 182 182 182 181 180 179 179 178 178 178 179 180 181 182 183 184 184 183 183 184 186 187 186 183
267 267 267 267 266 264 262 260 258 256 255 251 245 237 231 226 222 219 216 214 213 212 211 209 207 206 205 204 205 206 207 206 205 203 201 198 196 193 192 191 188 185 182 182 182 182 182 180 178 176 175 172 169 168 170 173 175 176 176 176 174 173 176 181 184 183 181 180 180 179 178 178 179 180 181 182 184 185 185 184 183 184 185 187 188 187
267 267 267 266 265 265 264 262 259 255 252 248 241 235 230 226 222 218 214 210 208 207 206 205 203 200 198 197 199 200 202 203 203 202 201 198 196 194 193 192 190 187 184 182 181 183 183 182 180 178 177 173 170 169 168 170 174 177 179 177 171 166 168 180 184 184 183 182 181 180 179 179 179 179 180 182 183 184 185 186 186 186 187 188 189 189
264 265 265 265 265 265 264 261 257 252 249 246 242 235 229 225 221 217 213 210 207 205 203 202 200 198 196 194 193 193 194 196 197 198 198 198 196 194 193 192 191 189 186 184 182 182 181 181 180 179 177 174 171 169 169 170 173 177 179 178 175 173 175 179 181 182 182 183 182 181 180 179 179 179 179 181 182 183 185 186 188 189 189 190 191 191
260 258 258 259 261 262 261 259 256 251 246 244 241 235 228 224 221 217 212 209 207 204 202 198 195 194 195 194 191 188 187 187 189 191 194 195 195 195 194 193 191 189 188 187 186 183 180 178 177 176 174 172 171 170 169 170 172 176 179 180 180 181 182 180 179 180 180 181 182 182 181 179 177 177 178 180 182 184 185 187 189 190 191 191 192 193
261 255 251 251 253 255 258 258 257 252 246 242 239 234 228 224 220 217 213 209 206 203 201 197 195 195 197 193 187 183 182 181 183 185 188 190 192 193 194 194 193 190 188 188 188 187 184 180 176 171 167 167 169 171 173 172 172 173 176 179 180 180 179 178 179 180 181 180 180 180 180 178 176 176 178 181 184 186 187 188 189 190 191 192 193 194
275 268 260 254 250 251 254 255 254 250 244 240 237 232 226 222 218 215 212 210 207 203 200 197 197 199 200 194 187 183 183 181 181 181 183 185 187 189 191 192 192 190 187 186 186 187 186 184 178 172 167 165 166 170 173 174 173 173 174 176 177 176 175 176 179 181 181 180 179 179 178 176 176 178 180 182 184 187 189 190 191 192 192 192 193 195
284 283 279 271 263 258 255 253 250 245 241 239 236 232 225 221 217 213 211 209 207 203 198 197 199 201 201 195 191 188 186 184 182 180 179 180 182 184 185 185 185 184 183 183 183 183 183 182 179 176 173 170 168 168 170 172 174 174 174 175 175 176 176 178 180 181 181 180 180 179 177 177 178 179 179 180 182 186 190 192 192 192 193 193 194 195
280 282 283 280 275 271 266 259 251 245 241 238 235 230 223 220 216 213 211 208 206 203 200 199 200 202 200 195 192 189 187 185 181 179 177 177 177 177 177 175 174 173 172 173 174 174 175 175 176 178 178 176 172 169 168 171 173 174 174 175 176 176 176 177 178 179 180 180 180 180 179 180 181 181 179 178 180 185 189 192 194 194 194 194 194 195
273 274 277 278 277 275 274 269 260 251 244 238 233 226 220 217 215 213 211 208 206 204 204 202 201 201 201 196 191 187 186 183 180 178 177 175 173 171 169 167 164 161 158 158 158 159 161 165 172 177 180 180 177 173 170 168 169 171 172 174 176 177 176 175 176 178 179 180 180 181 181 182 182 182 180 179 181 184 187 191 194 196 195 195 195 196
269 268 268 269 269 270 272 271 266 257 248 239 232 223 216 212 211 210 209 207 205 205 206 204 203 202 202 197 191 187 186 183 179 178 178 175 172 170 167 165 162 158 153 152 152 151 151 154 165 177 184 183 181 178 173 169 166 166 169 173 177 177 175 175 176 177 179 180 180 181 181 181 181 181 181 181 182 184 186 190 194 197 197 197 197 197
Height
739 739 739 739 739 740 740 741 742 743 743 744 745 746 746 747 748 749 750 752 753 753 753 753 753 752 752 752 752 752 753 754 754 754 755 755 756 756 757 758 759 760 761 762 763 763 764 764 764 764 765 766 767 769 770 773 775 777 779 780 781 782 784 785 787 789 791 792 793 793 794 795 797 799 801 802 804 805 806 808 809 809 810 812 813 814
736 737 737 737 738 738 738 738 739 740 741 742 743 744 744 745 745 746 747 748 749 750 750 750 750 750 749 749 749 749 749 750 751 752 752 753 754 754 755 756 756 757 758 759 760 760 761 761 761 761 761 762 763 765 767 769 772 774 776 778 779 780 782 783 785 787 790 791 792 792 793 794 796 797 799 801 802 803 805 806 807 809 809 811 812 813
734 735 735 736 736 735 735 735 736 737 739 739 741 742 742 743 743 744 744 745 746 747 747 747 747 747 746 746 746 746 746 747 748 749 749 750 751 752 752 753 754 755 755 756 757 758 759 759 760 759 759 759 760 761 764 766 769 772 774 776 777 778 779 781 783 785 788 789 790 791 792 793 794 796 798 799 800 802 803 805 806 807 809 810 811 812
732 732 732 734 734 733 732 733 734 735 736 738 739 740 741 741 741 742 742 743 743 744 744 744 744 744 743 743 743 743 744 744 745 746 746 747 748 749 749 750 751 752 753 754 754 755 756 757 758 758 757 757 757 759 761 764 766 769 772 774 775 776 777 779 781 784 786 788 789 790 791 792 793 794 796 797 799 800 802 804 805 806 808 809 810 811
728 728 729 730 731 730 730 731 732 733 734 736 737 738 739 739 739 739 740 740 741 741 741 740 740 740 740 740 740 740 741 742 742 743 743 744 745 745 746 747 748 749 749 751 752 753 753 754 755 755 756 756 756 757 759 761 764 767 770 772 773 774 775 777 779 782 784 786 788 789 790 791 792 793 794 796 797 799 801 802 804 805 807 808 809 810
725 725 726 728 728 728 728 729 730 731 733 734 735 735 736 736 737 737 738 738 738 738 738 738 738 737 737 737 738 738 739 739 740 740 741 741 742 743 743 744 745 746 747 748 749 749 750 751 752 753 754 754 755 756 757 759 762 765 768 770 772 773 774 775 778 780 782 784 786 787 788 789 791 792 793 794 796 798 799 801 803 804 806 807 808 809
723 724 724 725 726 726 726 727 728 729 731 732 732 733 734 734 734 735 735 735 735 736 735 735 735 735 735 735 736 736 737 737 738 738 738 739 739 740 740 741 742 743 744 745 746 747 747 748 749 751 752 753 754 755 756 758 761 764 767 769 770 771 772 774 776 779 780 782 784 785 787 789 790 791 793 794 795 797 799 800 802 803 805 806 807 808
721 721 722 723 723 724 724 724 725 726 728 729 730 730 731 731 732 732 732 733 733 733 733 733 733 733 733 733 734 734 734 735 735 735 735 736 736 737 738 739 739 740 741 742 743 744 745 746 747 749 750 751 752 753 755 757 760 763 765 768 769 770 771 773 775 777 779 780 782 784 786 788 789 791 792 793 794 796 798 799 801 803 804 805 806 807
719 719 719 720 721 721 722 722 722 724 725 726 727 728 728 729 729 730 730 730 730 730 730 730 730 730 730 731 732 732 732 732 733 733 733 734 734 734 735 736 737 738 739 740 741 742 743 744 745 747 749 749 750 752 754 756 759 762 764 766 768 769 770 772 774 776 777 779 780 783 784 787 788 790 791 792 794 795 797 799 800 802 803 804 805 807
717 717 717 718 718 719 719 720 720 721 723 724 724 725 726 727 727 728 728 728 728 728 728 728 728 728 729 729 730 730 730 730 730 730 731 731 732 732 733 734 734 735 736 737 738 739 740 742 744 746 747 748 749 751 753 755 758 760 763 765 767 768 769 771 773 774 776 777 779 781 783 785 787 789 790 791 793 794 796 798 799 801 802 804 805 806
715 715 716 716 717 717 718 718 719 719 721 722 722 723 724 724 725 726 726 726 725 725 726 726 726 726 727 727 728 728 729 729 728 728 729 729 729 730 731 731 732 733 734 735 736 737 739 740 742 744 746 747 749 750 752 755 757 759 762 764 766 767 769 770 772 774 775 777 778 780 782 784 785 787 789 790 792 794 795 797 799 800 802 803 804 805
713 714 714 715 716 716 717 717 718 718 719 720 721 722 722 722 723 724 724 724 724 724 724 724 724 724 724 725 726 726 727 727 727 727 727 727 728 729 729 729 730 730 731 733 734 735 737 739 741 743 745 747 748 750 752 754 757 759 761 763 765 766 768 770 771 773 775 776 778 780 782 783 785 786 788 790 792 793 795 797 798 799 801 802 804 804
712 713 713 714 714 715 716 717 717 718 718 719 720 720 720 720 721 721 722 722 722 722 723 722 722 722 722 722 723 724 725 725 725 725 725 725 726 727 728 728 728 729 730 731 733 734 736 738 740 742 744 746 747 749 752 754 756 758 760 762 764 765 767 769 770 772 774 776 778 780 782 783 785 786 788 790 791 793 794 796 797 799 800 802 803 804
710 711 712 713 713 714 715 715 716 716 716 716 717 717 717 718 719 719 720 720 720 720 721 721 721 720 719 720 721 722 723 723 724 724 724 724 724 725 726 727 727 727 728 729 731 733 735 737 740 742 743 745 747 749 751 754 755 757 759 761 762 764 766 768 770 772 773 775 777 779 781 783 784 786 788 789 791 792 794 795 797 798 799 801 802 803
709 709 710 711 711 712 713 714 714 714 714 714 714 714 715 716 717 717 718 718 719 719 719 720 719 719 718 718 718 720 721 722 722 722 723 723 723 724 725 725 726 726 727 728 729 731 734 736 738 740 742 744 746 748 751 753 755 756 758 759 761 763 764 766 769 771 773 775 777 778 780 782 784 785 787 789 790 791 793 794 796 797 799 800 801 802
707 707 708 709 709 710 710 711 711 711 711 711 712 713 714 714 715 715 716 716 717 718 718 719 719 718 717 716 716 718 719 720 721 721 721 722 722 723 724 724 725 725 726 727 729 730 733 734 736 738 740 742 744 747 749 752 754 755 757 758 759 761 763 765 768 770 772 774 776 778 779 781 783 784 786 788 789 791 792 794 795 796 797 799 800 801
704 705 705 706 707 707 708 709 709 709 709 710 710 711 711 712 713 714 714 715 715 716 717 717 718 717 716 715 714 715 717 718 719 720 720 721 721 722 723 723 724 724 725 726 728 729 731 733 735 736 738 740 742 745 748 750 753 754 756 757 759 760 762 764 766 769 771 773 774 776 778 780 782 784 785 787 788 790 791 792 794 795 796 798 799 800
703 703 703 704 704 704 705 706 707 707 708 708 709 709 709 710 711 712 713 713 714 714 715 715 715 715 714 714 713 713 715 716 718 719 719 720 720 721 722 723 723 724 725 726 727 729 730 732 734 735 736 739 741 744 746 749 751 753 755 756 758 759 761 763 765 768 770 772 773 775 777 779 780 782 784 786 787 789 790 791 793 794 795 797 798 799
700 701 701 702 702 703 703 704 704 705 706 706 707 707 708 709 709 710 711 711 712 712 713 713 713 713 712 712 711 711 713 715 716 717 719 719 720 721 721 722 723 724 724 726 727 728 729 731 733 734 736 738 740 743 745 747 749 751 754 755 757 759 760 763 765 767 769 771 772 774 776 777 779 781 783 784 786 788 789 790 791 793 794 796 797 798
699 699 699 699 700 701 701 701 702 702 703 704 704 705 706 707 708 708 709 709 710 710 711 711 711 710 710 711 710 710 712 714 715 717 718 718 719 720 721 722 723 724 724 725 726 728 729 731 732 734 736 738 739 742 744 746 748 750 752 754 756 758 759 762 764 766 768 770 771 773 775 776 778 780 782 783 785 786 788 789 790 792 793 795 796 798
697 697 697 698 699 699 699 699 699 700 701 702 703 704 704 705 705 706 707 707 708 709 709 709 709 708 709 709 709 709 711 712 714 715 717 718 719 719 720 721 722 723 724 725 726 727 729 730 732 734 735 737 739 741 743 745 747 749 751 753 754 756 758 760 762 764 767 769 770 772 774 775 777 779 780 782 784 785 786 788 789 791 792 794 795 797
696 695 695 696 696 697 696 697 698 698 699 700 700 701 701 702 703 704 704 705 706 706 707 706 706 707 708 708 708 708 710 711 712 714 715 718 719 719 719 720 721 722 723 724 726 727 728 730 731 733 735 737 739 740 742 744 746 748 750 751 753 755 757 759 761 763 765 767 769 770 772 774 775 777 779 781 782 784 785 787 788 790 791 793 794 796
695 694 694 694 695 695 695 695 696 696 697 697 698 698 699 699 700 700 701 702 703 704 704 704 705 706 706 707 707 708 709 709 711 712 714 716 718 718 719 719 720 722 723 724 725 727 728 729 731 733 735 736 738 739 741 743 745 747 749 750 752 754 755 757 759 762 764 766 767 769 771 772 774 776 778 779 781 783 784 785 787 789 790 792 794 795
694 693 693 693 693 693 694 694 694 694 694 695 695 695 696 697 697 698 699 700 701 702 703 703 704 705 705 705 706 707 708 709 709 711 712 714 716 717 718 719 720 722 723 724 725 726 728 729 731 733 735 736 738 739 740 742 744 745 747 749 750 752 754 756 758 760 762 764 766 768 769 771 773 775 777 778 780 782 783 784 786 788 789 791 792 794
693 692 692 692 692 692 692 692 693 693 693 693 693 694 694 695 696 697 698 699 699 700 701 702 703 704 704 704 705 706 706 707 708 709 711 713 715 716 718 719 720 721 723 724 725 726 728 729 731 733 734 736 738 739 739 741 742 744 745 747 749 750 752 754 757 759 761 763 765 767 769 770 772 774 775 777 779 780 782 783 785 786 788 790 791 793
692 691 691 690 690 690 690 691 691 691 691 691 692 692 693 694 695 696 696 697 698 699 700 701 702 702 702 703 704 704 705 706 706 707 709 711 713 716 717 718 719 720 722 724 725 726 728 729 731 733 734 736 738 739 739 740 741 743 744 746 747 749 751 753 755 758 760 762 764 766 768 769 771 773 774 776 778 779 781 782 784 785 787 789 790 792
690 689 689 689 689 689 689 689 689 689 689 689 690 690 691 692 693 694 694 695 696 697 698 699 700 700 701 702 702 703 703 704 705 706 707 709 711 714 717 718 719 720 722 724 725 727 728 729 731 732 734 735 737 739 739 739 740 742 743 744 746 748 750 752 754 756 759 761 763 764 766 768 770 772 773 775 776 778 779 781 782 784 786 787 789 790
688 688 687 687 686 686 686 686 687 687 687 688 688 689 689 690 690 691 691 692 693 695 696 697 697 698 699 700 700 701 702 703 704 704 705 707 710 713 715 717 718 719 721 724 726 727 728 729 730 732 734 735 737 738 739 739 740 741 742 744 745 747 749 751 753 755 757 759 761 764 765 767 769 770 772 774 775 776 778 779 781 783 784 786 788 789
686 685 685 684 684 684 684 684 684 684 685 685 686 686 686 686 687 687 687 689 691 692 693 694 694 695 696 697 699 700 701 701 702 703 704 706 709 711 714 715 717 718 720 723 726 728 729 730 731 732 734 735 736 737 737 738 739 740 742 743 745 746 748 750 752 754 756 758 760 762 764 766 767 769 771 772 774 775 777 778 780 782 783 784 786 787
684 684 683 682 681 681 681 681 681 681 682 683 683 684 684 683 683 683 684 686 688 689 690 691 692 693 694 696 699 700 700 700 699 700 702 705 707 709 712 714 716 717 718 721 725 729 730 730 731 731 733 734 735 735 735 736 738 739 741 743 745 746 748 750 752 754 755 758 759 761 763 764 766 768 769 771 772 774 775 777 779 780 781 783 784 786
684 683 681 680 680 679 679 679 679 679 679 680 680 681 681 680 680 681 682 683 684 685 686 688 689 690 692 694 696 697 697 696 697 698 700 702 704 706 709 712 714 714 715 717 720 725 729 731 731 731 732 733 734 733 733 734 735 737 739 742 744 746 748 749 751 753 755 757 759 760 762 764 765 767 768 769 771 772 774 775 777 778 779 781 783 784
683 682 680 679 679 678 677 677 676 677 677 677 677 678 678 678 678 679 679 679 680 681 683 684 685 687 688 689 690 690 690 692 693 695 697 699 701 703 705 708 711 713 713 714 714 717 722 727 729 731 731 732 732 732 732 733 734 736 738 739 742 745 747 749 751 753 755 757 758 760 761 763 764 766 767 769 770 771 772 774 775 776 778 779 781 783
682 681 679 678 677 677 676 675 675 675 674 674 674 674 674 675 675 676 676 676 677 678 679 681 682 684 684 685 686 686 687 688 689 692 694 696 699 701 703 705 708 710 712 714 714 714 716 720 724 728 730 731 731 730 731 732 734 735 736 738 740 743 745 748 750 752 754 756 758 759 761 763 764 765 766 768 769 770 771 773 774 775 776 777 779 781
680 679 678 677 676 675 674 674 673 673 673 672 672 672 672 672 673 673 674 674 674 675 675 677 678 679 680 682 683 684 685 685 686 688 691 694 695 697 700 703 705 708 710 713 714 714 715 717 720 724 728 729 730 730 730 732 733 734 735 736 738 740 743 746 748 750 752 754 756 759 760 762 763 765 766 767 768 769 770 771 773 774 775 776 778 779
678 677 676 675 674 673 672 671 671 671 670 670 670 670 669 670 670 670 671 671 672 672 673 673 674 674 675 677 679 680 682 682 683 685 688 690 692 694 697 699 701 704 707 709 711 713 715 717 718 720 724 727 729 729 730 731 732 734 735 736 737 739 741 743 745 748 750 752 754 756 759 760 762 764 765 766 767 768 769 771 772 773 774 775 777 778
676 674 674 673 672 671 670 669 669 669 669 668 668 668 668 668 668 668 669 669 669 670 670 671 671 672 672 672 674 675 677 678 679 682 684 686 688 691 694 696 697 699 703 705 708 709 712 715 717 718 720 723 726 728 729 731 732 733 734 736 737 738 740 742 744 746 748 750 753 754 756 758 760 762 763 764 766 767 769 770 771 772 773 775 777 778
674 672 671 670 670 669 668 667 667 667 666 666 666 665 665 666 666 666 667 667 668 668 668 669 669 670 670 670 671 672 674 674 676 679 681 683 685 687 689 691 694 696 699 701 704 706 709 712 716 718 719 719 720 723 727 729 731 733 734 735 736 738 739 741 743 744 746 748 750 752 754 756 758 760 762 764 765 767 769 770 771 772 773 775 776 778
672 670 669 668 667 666 665 665 664 664 664 664 664 664 664 664 664 664 665 665 665 666 666 667 668 668 669 669 670 671 672 672 673 675 678 680 682 684 686 688 691 694 695 697 700 702 705 709 713 716 717 717 717 719 722 725 729 731 732 734 735 737 739 740 742 743 745 747 749 751 753 755 757 759 761 763 764 766 768 769 770 771 773 775 776 778
670 668 667 665 665 664 663 662 662 662 662 663 662 662 662 662 663 663 663 664 664 664 664 665 666 667 667 668 669 669 669 670 671 672 675 677 679 681 683 685 688 691 694 696 698 699 701 704 706 709 712 715 717 718 720 723 725 727 730 733 735 737 738 739 740 742 744 745 747 749 751 754 755 757 759 761 763 764 766 767 769 770 772 774 776 778
668 666 665 664 663 662 661 659 659 660 660 661 661 660 660 660 661 661 661 662 662 663 663 664 665 665 666 667 668 668 668 668 669 671 672 674 676 678 680 682 684 688 692 694 696 698 699 701 703 705 707 710 713 716 719 721 723 724 727 731 734 736 737 738 739 740 742 744 746 748 750 752 754 755 757 759 760 761 763 764 766 768 770 772 774 775
666 664 663 661 661 660 659 658 657 658 658 659 659 659 658 658 659 659 659 660 660 661 662 663 664 664 665 666 666 667 667 667 668 669 671 672 674 676 678 679 681 685 689 692 694 696 697 699 701 704 706 708 710 713 715 718 720 722 724 727 729 731 733 736 738 739 741 743 744 746 748 750 752 754 755 757 759 760 761 763 764 766 769 770 771 772
664 662 661 660 659 658 656 656 655 656 656 656 656 656 655 655 656 657 657 658 658 659 659 660 661 663 664 664 665 665 666 666 667 668 669 670 672 674 675 677 679 682 685 689 692 694 695 697 699 701 703 705 708 711 714 716 719 720 722 724 726 729 733 735 737 738 740 742 743 745 747 749 750 752 754 756 757 759 760 762 764 765 767 769 770 771
661 660 659 658 657 656 655 654 654 653 654 654 654 653 653 653 654 654 654 655 655 656 657 658 659 660 661 662 663 664 664 665 665 666 668 669 670 672 674 675 677 679 683 686 689 691 694 695 697 698 699 702 704 708 711 714 717 719 721 722 724 728 732 734 735 737 739 740 742 744 745 747 749 750 753 754 756 758 760 761 763 764 765 767 768 769
659 658 657 656 655 654 653 652 651 651 651 651 651 650 650 651 651 652 652 653 653 654 655 656 657 659 660 661 662 662 663 664 664 665 666 667 669 671 672 674 675 677 679 683 685 689 691 694 695 696 698 700 702 704 707 710 714 717 719 721 722 723 724 727 730 733 736 738 740 742 743 745 747 749 752 754 755 757 759 760 762 763 764 766 767 768
656 654 654 653 652 652 651 649 649 648 648 648 648 648 648 648 649 649 650 650 651 652 653 654 656 658 659 659 660 661 662 663 664 664 665 667 668 669 671 672 674 675 678 680 682 684 688 690 692 694 696 698 700 702 704 707 710 713 716 719 720 721 722 724 727 730 733 736 738 740 742 744 746 748 750 752 754 755 757 758 760 761 763 764 766 767
652 651 649 649 649 648 648 647 647 646 646 645 645 645 645 646 647 647 647 648 649 650 651 652 654 654 655 656 657 659 660 661 662 663 664 665 667 669 670 671 672 674 676 679 681 683 684 686 689 691 694 697 699 701 702 704 707 710 713 716 719 721 723 725 726 728 730 733 735 737 739 742 744 746 749 750 752 754 755 756 758 759 761 763 764 765
651 649 647 646 645 644 644 644 644 644 643 643 642 643 643 644 644 645 645 646 647 648 649 650 651 651 651 653 654 656 658 659 660 661 662 663 665 667 669 670 672 673 675 678 680 683 684 686 687 688 691 694 697 700 701 703 704 707 710 713 716 719 721 723 724 726 728 730 733 735 737 740 742 744 746 748 750 752 754 755 757 758 760 761 763 764
650 648 646 644 643 642 641 641 642 641 640 640 640 640 640 641 641 642 643 644 645 646 647 648 648 649 649 650 651 653 654 655 656 658 659 661 663 665 667 669 671 673 675 678 680 682 684 686 687 688 688 690 693 696 699 701 703 704 707 710 713 716 718 720 722 724 726 729 730 732 734 737 739 741 744 746 749 750 752 754 755 756 758 759 761 763
650 648 646 644 642 640 639 639 639 639 638 637 638 638 638 638 639 639 640 641 642 643 644 645 645 646 647 648 649 650 652 653 654 655 656 658 660 662 665 667 669 672 674 677 679 681 683 685 686 688 689 689 690 692 695 698 700 703 705 708 710 713 715 718 720 722 724 727 729 730 732 734 736 738 740 743 746 748 750 751 753 754 756 758 759 761
648 647 645 644 641 639 638 638 638 637 636 635 635 635 635 635 636 637 638 639 639 640 641 642 643 644 644 645 646 648 650 651 652 654 655 656 657 659 662 664 666 669 672 675 678 680 682 684 686 687 688 689 690 690 692 695 698 701 704 706 708 710 713 715 718 720 722 724 727 729 731 733 735 737 739 741 743 745 747 749 751 752 754 755 757 759
646 644 643 642 640 639 638 637 636 635 634 634 633 633 633 633 634 635 635 636 637 638 639 639 640 641 641 642 644 645 646 648 649 651 652 653 655 657 659 661 663 666 669 672 676 679 681 684 686 687 688 688 689 689 690 692 695 699 702 704 707 709 711 713 715 718 720 722 724 727 729 732 734 736 737 739 741 744 746 747 749 750 751 753 755 757